User: anonymous   Login
Location: Molino di Ancona
(43.6167°N, 13.3667°E)
Time: 13:27:27
(UTC+00:00)
Language:

COSMO-SKYMED 1 - Orbit

View from above orbital plane
View from above orbital plane
View from above satellite
View from above satellite

Ground track
Ground track

The orbit data is extracted from the following two-line orbital elements,

1 31598U 07023A   20053.15718217  .00000378  00000-0  54075-4 0  9993
2 31598  97.8860 237.9971 0001329  85.5613 274.5734 14.82152674687606
Epoch (UTC): 22 February 2020 03:46:20
Eccentricity: 0.0001329
inclination: 97.8860°
perigee height: 621 km
apogee height: 623 km
right ascension of ascending node: 237.9971°
argument of perigee: 85.5613°
revolutions per day: 14.82152674
mean anomaly at epoch: 274.5734°
orbit number at epoch: 68760

The dashed part of the orbit path shows where the satellite is in the earth's shadow,  

DLR